This demonstration page uses our WeatherBlox Daily Observations layout. Learn more.

Left ArrowRight Arrow

Hourly Observations for April 29, 2017

Temp ( °F °C ) Dew Point ( °F °C ) Humidity (%) Winds ( mph kmh ) Pressure ( in mb ) Visibility ( mi km ) Precip ( " mm )
12:53 am 00:53 Clear 31 -0.6 28 -2.2 89 89 WSW 3 6 30.22 1024 10 16 0.00 0.00
1:53 am 01:53 Clear 30 -1.1 27 -2.8 88 88 SW 6 9 30.23 1024 10 16 0.00 0.00
2:53 am 02:53 Clear 29 -1.7 27 -2.8 92 92 W 5 7 30.23 1024 10 16 0.00 0.00
3:53 am 03:53 Mostly Clear 29 -1.7 27 -2.8 92 92 WSW 7 11 30.23 1024 10 16 0.00 0.00
4:53 am 04:53 Clear 30 -1.1 27 -2.8 88 88 NW 3 6 30.24 1024 10 16 0.00 0.00
5:53 am 05:53 Mostly Cloudy 30 -1.1 28 -2.2 92 92 Calm 30.24 1024 10 16 0.00 0.00
6:53 am 06:53 Cloudy 32 0 30 -1.1 92 92 Calm 30.24 1024 10 16 0.00 0.00
7:53 am 07:53 Cloudy 36 2.2 33 0.6 89 89 Calm 30.24 1024 10 16 0.00 0.00
8:53 am 08:53 Cloudy 40 4.4 34 1.1 79 79 E 7 11 30.25 1024 10 16 0.00 0.00
9:53 am 09:53 Cloudy 44 6.7 35 1.7 71 71 ESE 5 7 30.25 1025 10 16 0.00 0.00
10:53 am 10:53 Cloudy 49 9.4 35 1.7 59 59 ESE 6 9 30.23 1024 10 16 0.00 0.00
11:53 am 11:53 Mostly Cloudy 55 12.8 35 1.7 47 47 SW 17 28 30.20 1023 10 16 0.00 0.00
12:53 pm 12:53 Partly Cloudy 58 14.4 33 0.6 39 39 SW 16 26 30.17 1022 10 16 0.00 0.00
1:53 pm 13:53 Mostly Cloudy 58 14.4 32 0 38 38 WSW 14 22 30.14 1021 10 16 0.00 0.00
2:53 pm 14:53 Mostly Sunny 56 13.3 32 0 40 40 VRB 5 7 30.15 1021 10 16 0.00 0.03
3:04 pm 15:04 Partly Cloudy with Nearby Thunderstorms 57 14 34 1 41 41 WNW 7 11 30.03 1017 10 16 0.00 0.00
3:19 pm 15:19 Mostly Cloudy 52 11.1 32 0 47 47 SW 26 43 30.09 1019 10 16 0.00 0.00
3:27 pm 15:27 Mostly Cloudy with Rain 46 7.8 38 3.3 73 73 WSW 17 28 30.12 1020 5 8 0.00 0.03
3:53 pm 15:53 Mostly Cloudy 51 10.6 38 3.3 61 61 E 7 11 30.14 1021 10 16 0.02 0.51
4:53 pm 16:53 Mostly Sunny 59 15 34 1.1 39 39 WSW 15 24 30.09 1019 10 16 0.00 0.00
5:06 pm 17:06 Mostly Cloudy 54 12 36 2 51 51 NW 17 28 30.03 1017 10 16 0.00 0.00
5:15 pm 17:15 Mostly Cloudy 54 12.2 36 2.2 51 51 NW 14 22 30.03 1017 10 16 0.00 0.00
5:53 pm 17:53 Mostly Cloudy 56 13.3 35 1.7 46 46 Calm 30.09 1019 10 16 0.00 0.03
6:53 pm 18:53 Partly Cloudy 59 15 31 -0.6 35 35 Calm 30.06 1018 10 16 0.00 0.00
7:53 pm 19:53 Sunny 52 11.1 32 0 47 47 SW 9 15 30.05 1018 10 16 0.00 0.00
8:53 pm 20:53 Mostly Clear 42 5.6 33 0.6 71 71 S 9 15 30.05 1018 10 16 0.00 0.00
9:53 pm 21:53 Mostly Clear 40 4.4 32 0 73 73 S 7 11 30.04 1017 10 16 0.00 0.00
10:53 pm 22:53 Partly Cloudy 41 5 33 0.6 73 73 SSW 9 15 30.03 1017 10 16 0.00 0.00
11:53 pm 23:53 Clear 39 3.9 33 0.6 79 79 VRB 5 7 30.01 1016 10 16 0.00 0.00

Powered by AerisWeather